Location: Kellogg
(38.0159°N, 90.0546°W)
Time: 02:14:00
(UTC+00:00)

ARIANE 6 FM1 Upper Stage - Pass Details

Date: 22 January 2026
Orbit: 522 x 609 km, 62.0° (Epoch: 7 February)

Event Time Altitude Azimuth Distance (km) Brightness Sun altitude
Rises 23:53:21 0° 196° (SSW) 2,728 6.7 -8.4°
Reaches altitude 10° 23:55:41 10° 188° (S) 1,822 5.6 -8.8°
Maximum altitude 23:59:30 39° 119° (ESE) 828 3.2 -9.5°
Enters shadow 00:02:50 12° 53° (NE) 1,640 4.4 -10.1°
